ARIANE 44LP DEB, 25543

Orbit data source: Space-Track

ARIANE 44LP DEB, 25543 is space debris in HEO originally from a launch on Sun, 11 Dec 1988 UTC launched from the French Guiana (FRGUI). Debris objects in space refer to the collection of defunct objects orbiting the Earth. Examples of debris include non-operational satellites, rocket bodies, and fragments generated from explosions, collisions, or faulty payload assembly.

Loading next visibility...
Identifier
25543, 1988-109K
Orbit
HEO
Country
Flag of FRFR
Related business
Manufacturer
Unknown
Mission
Spacecraft
Bus & Motor
Unknown
Mass
Unknown
Launch date (UTC)
1988-12-11 (37 years ago)
Launch vehicle
Unknown
Launch site
French Guiana (FRGUI)
Object type
Payload
Rocket body
Debris
Shape & HBR
Unknown
Radar Cross Section
9.500 m², Large (>1 m²)

Expand to show TLE details & history
Last TLE update: 20 hours ago

TLE from 20 hours ago
0 ARIANE 44LP DEB
1 25543U 88109K   25250.77891709  .00000213  00000-0  15228-2 0  9993
2 25543   7.2153 338.2370 7181463 213.4999  67.0834  2.30506390230160
Epoch: 2025-09-07T18:41Z
TLE epoch observation values (Epoch: 2025-09-07T18:41:38.436Z)
Latitude
-0°
Longitude
70.66226°
Altitude
22,825.43 km
Speed
3.291 km/s
True Right ascension
22h 32m 39s
True Declination
0° 00' 00"
Sunlit
Object was in full shadow at epoch
Visualization orbit readout
Latitude
Unknown
Longitude
Unknown
Altitude
Unknown
Speed
Unknown
Apparent Right ascension
Unknown
Apparent Declination
Unknown
Sunlit
N/A
Visualization observer readout
Local Sidereal Time
07:05:45
Azimuth
Unknown
Elevation
Unknown
Doppler factor
Unknown
Orbital elements
Apogee altitude
35,222.646 km
Perigee altitude
446.273 km
Semi-major axis
24,212.596 km
Eccentricity
0.71815
Inclination
7.2153°
RAAN
338.237°
Arg. of periapsis
213.4999°
True anomaly
146.36163°
Mean anomaly
67.0834°
Eccentric anomaly
106.52966°
Mean motion
0.57608 °/min
Orbital period
624.92 mins
BSTAR
0.0015228
Loading maneuver chart data...
Computing Atmospheric mass density...
Loading historical data...
Loading historical data...
Loading historical data...
Loading historical data...
Loading historical data...
Loading historical data...
Loading historical data...

Documentation

Showing up to 5 results
|